This is the latest recevied weather packets stored in our database for station/object VK2XSE. If no packets are shown the sender has not sent any weather packets the latest 10 day(s).
| Time | Temp. | Humidity | Pressure | Rain* | Wind** | Luminosity | Snow |
|---|---|---|---|---|---|---|---|
| 1777854918 | 16.11° C | 84% | 1016.7 hPa | 0 mm | - | 485 W/m² | - |
| 1777854318 | 16.11° C | 86% | 1016.8 hPa | 0 mm | - | 488 W/m² | - |
| 1777853719 | 16.11° C | 87% | 1016.7 hPa | 0 mm | - | 466 W/m² | - |
| 1777853118 | 15.56° C | 89% | 1016.7 hPa | 0 mm | - | 449 W/m² | - |
| 1777852518 | 15.56° C | 92% | 1016.7 hPa | 0 mm | - | 422 W/m² | - |
| 1777851918 | 15° C | 94% | 1016.7 hPa | 0 mm | - | 400 W/m² | - |
| 1777851318 | 14.44° C | 95% | 1016.7 hPa | 0.25 mm | - | 378 W/m² | - |
| 1777850718 | 13.89° C | 95% | 1016.7 hPa | 0.25 mm | - | 354 W/m² | - |
| 1777850118 | 13.89° C | 95% | 1016.7 hPa | 0.25 mm | - | 329 W/m² | - |
| 1777849518 | 13.89° C | 95% | 1016.8 hPa | 0.25 mm | - | 309 W/m² | - |
| 1777848918 | 13.33° C | 95% | 1016.7 hPa | 0.25 mm | - | 282 W/m² | - |
| 1777848318 | 12.78° C | 95% | 1016.6 hPa | 0.25 mm | - | 258 W/m² | - |
| 1777847718 | 12.78° C | 95% | 1016.5 hPa | 0 mm | - | 101 W/m² | - |
| 1777847118 | 12.22° C | 95% | 1016.5 hPa | 0 mm | - | 32 W/m² | - |
| 1777846518 | 12.22° C | 95% | 1016.4 hPa | 0 mm | - | 30 W/m² | - |
| 1777845918 | 11.67° C | 95% | 1016.4 hPa | 0 mm | - | 29 W/m² | - |
| 1777845318 | 11.11° C | 94% | 1016.4 hPa | 0 mm | - | 26 W/m² | - |
| 1777844718 | 11.11° C | 94% | 1016.3 hPa | 0 mm | - | 38 W/m² | - |
| 1777844118 | 11.11° C | 94% | 1016.2 hPa | 0 mm | - | 18 W/m² | - |
| 1777843518 | 11.11° C | 94% | 1016.1 hPa | 0 mm | - | 12 W/m² | - |
| 1777842918 | 11.11° C | 93% | 1015.9 hPa | 0 mm | - | 9 W/m² | - |
| 1777842318 | 11.11° C | 93% | 1015.9 hPa | 0 mm | - | 0 W/m² | - |
| 1777841718 | 11.11° C | 93% | 1015.9 hPa | 0 mm | - | 0 W/m² | - |
| 1777841118 | 11.11° C | 93% | 1015.8 hPa | 0 mm | - | 0 W/m² | - |
| 1777840518 | 11.11° C | 93% | 1015.6 hPa | 0 mm | - | 0 W/m² | - |
* Rain latest hour (hover to see other rain measurements)
** Current wind speed in m/s (hover to see current wind gust speed)